Regional Weather Roundup
Issued by NWS Memphis, TN

Current Version | Previous Version | Text Only | Print | Product List | Glossary On
Versions: 1 2 3 4 5 6 7 8 9 10 11 12 13 14 15 16 17 18 19 20 21 22 23 24 25 26 27 28 29 30 31 32 33 34 35 36 37 38 39 40 41 42 43 44 45 46 47 48 49 50
000
ASUS44 KMEG 161710
RWRMEG
MEMPHIS CWA HOURLY WEATHER ROUNDUP
NATIONAL WEATHER SERVICE MEMPHIS TN
1200 PM CDT WED AUG 16 2017

...WEST TENNESSEE...

CITY           SKY/WX    TMP DP  RH WIND       PRES   REMARKS
MEMPHIS INTL   CLOUDY    81  77  88 S10       30.03F
NWS MEMPHIS      N/A     81 N/A N/A MISG        N/A
JACKSON        MOSUNNY   85  78  80 S8        30.03F HX  96
COVINGTON      PTSUNNY   84  77  79 S12       30.02F HX  94
LEXINGTON      PTSUNNY   82  75  78 SW8       30.04F
SELMER         CLOUDY    82  75  78 SW7       30.05F
SAVANNAH       PTSUNNY   84  77  79 S5        30.04F HX  94
DYERSBURG      CLOUDY    83  77  82 S8        30.02F HX  92
UNION CITY     PTSUNNY   86  77  74 S9G16     30.00F HX  97


...EASTERN ARKANSAS...

CITY           SKY/WX    TMP DP  RH WIND       PRES   REMARKS
JONESBORO      CLOUDY    81  79  94 SW10      30.00F HX  90
WEST MEMPHIS   CLOUDY    80  78  94 S9        30.02S
BATESVILLE     PTSUNNY   84  75  74 S8        29.99F HX  92
NEWPORT        CLOUDY    81  76  84 S12       30.00S
WALNUT RIDGE   CLOUDY    81  73  78 S15       29.99S
BLYTHEVILLE    CLOUDY    82  77  84 SW10      30.02S HX  90
NW BLYTHEVILLE PTSUNNY   82  77  83 SW12      30.01F HX  91
SEARCY           N/A    N/A N/A N/A MISG        N/A
PINE BLUFF     MOSUNNY   87  75  67 W9        30.01S HX  96
MONTICELLO     MOSUNNY   87  76  69 SW10      30.02F HX  97


...NORTH MISSISSIPPI...

CITY           SKY/WX    TMP DP  RH WIND       PRES   REMARKS
TUPELO         CLOUDY    82  74  76 S9        30.07F
OXFORD           N/A    N/A N/A N/A MISG        N/A
BATESVILLE     PTSUNNY   82  75  79 CALM      30.05F
OLIVE BRANCH   CLOUDY   N/A N/A N/A SW10      30.04S
TUNICA           N/A     81  77  89 SW8       30.04S
CLARKSDALE       N/A     84  82  94 W7        30.03F HX 101
CORINTH        CLOUDY    84  73  70 VRB6      30.05F HX  91
GREENWOOD      MOSUNNY   86  77  74 VRB5      30.05F HX  97
COLUMBUS       CLOUDY    82  81  96 S5        30.07F HX  94
STARKVILLE     PTSUNNY   84  75  74 S5        30.08F HX  92
GOLDEN TRIANGL PTSUNNY   84  72  65 CALM      30.04


...SOUTHEAST MISSOURI...

CITY           SKY/WX    TMP DP  RH WIND       PRES   REMARKS
KENNETT        CLOUDY    84  77  79 S12       29.99S HX  94
MALDEN         CLOUDY    86  77  74 S12       30.00S HX  97
WEST PLAINS    CLOUDY    84  74  71 SW9       30.00R HX  91
POPLAR BLUFF   CLOUDY    86  79  79 S10       29.96F HX  99
CAPE GIRARDEAU CLOUDY    84  77  79 S9        29.97F HX  94


...NORTHWEST ALABAMA...

CITY           SKY/WX    TMP DP  RH WIND       PRES   REMARKS
MUSCLE SHOALS  SUNNY     87  75  67 SW6       30.08F HX  96


...MIDDLE TENNESSEE...

CITY           SKY/WX    TMP DP  RH WIND       PRES   REMARKS
NASHVILLE      PTSUNNY   84  76  76 S7        30.07F HX  93
CLARKSVILLE    MOSUNNY   88  76  67 VRB5      30.03F HX  99
COLUMBIA       PTSUNNY   84  77  79 S6G13     30.04F HX  94


...WESTERN KENTUCKY...

CITY           SKY/WX    TMP DP  RH WIND       PRES   REMARKS
PADUCAH        CLOUDY    85  76  74 VRB5      29.99F HX  94
FORT CAMPBELL  MOSUNNY   89  76  66 SW5       30.02F HX 100


...CENTRAL ARKANSAS...

CITY           SKY/WX    TMP DP  RH WIND       PRES   REMARKS
LITTLE ROCK    PTSUNNY   86  76  71 SW10      29.99F HX  96


SKY/WX REPORTED AS FAIR MEANS FEW OR NO CLOUDS BELOW
12 THOUSAND FEET.




USA.gov is the U.S. government's official web portal to all federal, state and local government web resources and services.